www.pogodaiklimat.ru

Погода и климат >> Архив погоды >> Финляндия >> Неллим


ПОГОДА в Неллиме

  • Прогноз погоды в Неллиме
  • Монитор погоды в Неллиме

АРХИВ ПОГОДЫ в Неллиме

Время (UTC), дата Ветер
(напр.,м/с)
 
Видим.   Явления Облачность Т
(С)
Тd
(С)
f
(%)
Тe
(С)
Тes
(С)
Комфортность P
(гПа)
Po
(гПа)
Тmin
(С)
Tmax
(С)
R
(мм)
R24
(мм)
S
(см)
00 11.06 С 6-9
{11}
30 км слаб. дождь 9/0 200 м
[]
+1.5 +1.4 99 -5 -5 1018.4 1003.0 0.1
03 11.06 СЗ 6-9
{10}
16 км слаб. дождь 10/0 200 м
[]
+1.9 +1.7 99 -4 -4 1020.8 1005.4 0.3
06 11.06 С 4-6
{9}
30 км слаб. ливневой дождь 9/9 300 м
[]
+2.5 +2.0 96 -3 -2 1023.7 1008.3 +1.4 +2.5 4
09 11.06 С 5-9
{9}
45 км 9/9 600 м
[]
+4.3 +1.3 81 -1 0 1026.1 1010.7
12 11.06 СЗ 4-6
{9}
35 км в посл. час дождь 9/0 1000 м
[]
+5.7 +1.0 72 +2 +6 1027.7 1012.4
15 11.06 С 7-12
{12}
10 км ливневой дождь 9/9 600 м
[]
+3.5 +2.3 92 -3 -3 1028.5 1013.0 0.1
18 11.06 СЗ 5-7
{7}
50 км 9/9 1500 м
[]
+5.1 +1.8 79 +1 +1 1028.7 1013.3 +1.5 +7.7 1
21 11.06 СЗ 4-6
{6}
50 км 9/0 1500 м
[]
+4.5 +1.5 81 0 0 1029.1 1013.7
00 12.06 З 3-4
{5}
50 км 9/9 600 м
[]
+4.1 +2.2 87 0 0 1029.4 1014.0
03 12.06 СЗ 5-7
{8}
50 км 8/0 300 м
[]
+4.6 +2.2 84 -0 0 1029.8 1014.4
06 12.06 СЗ 4-6
{7}
50 км 9/9 600 м
[]
+5.8 +1.5 74 +2 +2 1030.2 1014.8 +3.9 +5.9
09 12.06 СЗ 4-6
{6}
45 км ясно +8.8 +2.1 63 +6 +13 1030.6 1015.4
12 12.06 СЗ 1-3
{6}
45 км 9/0 1000 м
[]
+9.2 +1.6 59 +9 +15 1030.4 1015.2
15 12.06 СЗ 3-4
{4}
45 км ясно +10.5 +2.3 57 +9 +13 1029.4 1014.3
18 12.06 штиль 0
{1}
50 км ясно +9.7 +2.7 62 +9 +11 1028.7 1013.6 +5.2 +10.7
21 12.06 ЮВ 1-2
{2}
50 км ясно +5.4 +4.6 95 +4 +4 1028.9 1013.5
00 13.06 В 2-3
{3}
50 км ясно +3.6 +3.4 99 0 +1 1028.9 1013.4
03 13.06 В 2-2
{3}
50 км ясно +8.1 +5.6 84 +6 +8 1027.8 1012.6
06 13.06 Ю 3-5
{5}
45 км ясно +12.6 +3.4 53 +11 +17 1026.7 1011.7 +3.1 +12.7
09 13.06 СЗ 2-3
{3}
50 км 3/0 1500 м
[]
+14.4 +6.2 58 +14 +23 1025.4 1010.6
12 13.06 З 3-6
{7}
35 км 9/0
[]
+18.2 +1.4 32 +18 +23 1024.2 1009.5
15 13.06 З 4-6
{6}
45 км 8/0
[]
+18.6 +1.5 32 +19 +21 1022.7 1008.2
18 13.06 ЮЗ 2-3
{3}
50 км 9/9
[]
+14.8 +3.9 48 +15 +15 1021.7 1006.9 +12.5 +18.7
21 13.06 СЗ 2-3
{4}
45 км 9/0
[]
+10.9 +5.7 70 +10 +10 1021.7 1006.7
00 14.06 С 2-3
{3}
50 км 6/0
[]
+7.4 +5.8 90 +5 +5 1022.2 1007.1
03 14.06 СЗ 3-4
{4}
50 км ясно +7.7 +5.1 84 +5 +6 1021.3 1006.1
06 14.06 СЗ 3-4
{4}
50 км 1/1 1000 м
[]
+8.7 +4.3 74 +6 +11 1020.4 1005.3 +6.7 +14.8
09 14.06 СЗ 2-3
{4}
35 км ясно +13.7 +5.2 56 +13 +24 опасность
простуды
1018.6 1003.8
12 14.06 СЗ 4-5
{6}
45 км ясно +16.2 +3.2 42 +16 +22 1017.2 1002.5
15 14.06 С 5-9
{9}
50 км ясно +14.6 +2.2 43 +13 +16 1016.3 1001.6
18 14.06 С 5-8
{8}
50 км ясно +9.8 +3.0 63 +7 +7 1017.7 1002.7 +8.7 +16.5
21 14.06 -4
{7}
50 км 1/0 600 м
[]
+6.2 +2.7 78 1018.5 1003.4
00 15.06 С 3-4
{4}
50 км 9/0 600 м
[]
+5.8 +2.9 82 +3 +3 1018.8 1003.6
03 15.06 СЗ 3-4
{5}
50 км 9/0 300 м
[]
+6.2 +3.6 83 +3 +4 1018.8 1003.7
06 15.06 СЗ 4-6
{6}
50 км 10/10 300 м
[]
+6.5 +3.3 80 +3 +3 1018.4 1003.3 +4.4 +9.8
09 15.06 СЗ 2-4
{4}
40 км ясно +11.1 +4.4 63 +10 +21 опасность
простуды
1016.8 1001.9
12 15.06 СЗ 3-4
{5}
35 км ясно +15.8 +4.4 47 +15 +24 1014.5 999.9
15 15.06 СЗ 4-6
{7}
40 км ясно +18.0 +5.7 44 +18 +21 1012.1 997.6
18 15.06 СЗ 4-6
{6}
50 км 9/9
[]
+16.9 +5.2 46 +16 +17 1010.6 996.1 +6.2 +18.4
21 15.06 З 3-4
{4}
50 км ясно +10.4 +4.6 67 +9 +9 1010.6 995.8
00 16.06 СЗ 3-4
{10}
50 км ясно +9.3 +4.1 70 +7 +7 1011.0 996.1
03 16.06 С 5-7
{9}
50 км 4/0 600 м
[]
+7.8 +3.8 76 +4 +5 1012.3 997.4
06 16.06 С 5-8
{10}
50 км 10/10 600 м
[]
+8.2 +3.9 74 +5 +5 1012.8 997.8 +7.3 +16.9
09 16.06 СЗ 5-7
{7}
35 км ясно +12.9 +5.0 59 +11 +17 1012.9 998.2
12 16.06 СЗ 5-7
{7}
45 км ясно +14.6 +4.1 49 +13 +18 1011.6 997.0
15 16.06 СЗ 7-10
{10}
45 км ясно +15.0 +4.0 48 +13 +15 1011.3 996.7
18 16.06 С 4-7
{8}
50 км ясно +12.9 +1.2 45 +11 +12 1011.7 997.0 +8.2 +16.1
21 16.06 С 2-3
{5}
50 км ясно +8.0 +2.7 69 +6 +6 1011.5 996.6
00 17.06 -3
{3}
50 км ясно +3.8 +2.1 89 1011.5 996.3
03 17.06 СЗ 2-4
{4}
50 км ясно +8.1 +2.8 69 +6 +8 1011.0 996.1
06 17.06 СЗ 3-4
{5}
50 км ясно +10.0 +2.7 60 +8 +13 1009.9 995.1 +3.2 +12.9
09 17.06 СЗ 3-5
{6}
35 км ясно +14.5 +2.4 44 +14 +23 1009.0 994.4
12 17.06 СЗ 3-4
{5}
45 км ясно +16.2 +0.9 35 +16 +24 1008.1 993.6
15 17.06 С 2-5
{7}
40 км 8/0
[]
+16.2 +4.0 44 +16 +19 1007.9 993.4
18 17.06 С 5-7
{8}
50 км ясно +13.7 +3.1 49 +12 +13 1008.2 993.6 +10.0 +17.4

 

Местоположение метеостанции Неллим (Финляндия): широта 68.85 долгота 28.30 высота над уровнем моря 121 м.

В архиве по умолчанию представлена погода в Неллиме за последнюю неделю. Архивные данные за месяц целиком и за предыдущие месяцы, начиная с января 2011 года, Вы можете получить, выбрав интересующий диапазон дат из раскрывающегося списка и нажав кнопку "Ввод!".


*Определитесь, кто Вы:
робот инопланетянин человек

Внимание! Время в таблицах - всемирное. Для получения местного времени необходимо прибавить поправку, которая равна 1 ч.

Смотрите также архив погоды в соседних городах и на ближайших метеорологических станциях:

Погода в Янискоски (Мурманская область, Россия) (23 км)
Погода на Острове Сеиталасса (Финляндия) (31 км)
Погода в Инари Раджайосеппи (Финляндия) (41 км)
Погода в Верховье Лотты (Мурманская область, Россия) (44 км)
Погода в Аэропорту Ивало (Финляндия) (45 км)
Погода в Нируде (Норвегия) (50 км)
Погода в Кааманене (Финляндия) (52 км)
Погода в Инари Вайла (Финляндия) (53 км)
Погода в Саариселькя (Финляндия) (58 км)
Погода в Саариселькя (Финляндия) (60 км)

Пояснения к столбцам:

Ветер - указаны скорость ветра в м/с - средняя за 10 мин, порывы в срок и между сроками (в фигурных скобках) и направление, откуда дует ветер: С - северный, СВ - северо-восточный, В - восточный, ЮВ - юго-восточный, Ю - южный, ЮЗ - юго-западный, З - западный, СЗ - северо-западный.
Видимость - горизонтальная дальность видимости в метрах или километрах. При видимости от 1 до 10 км при отсутствии осадков обычно наблюдается дымка, при ухудшении видимости до 1 км и менее - туман. В сухую погоду видимость может ухудшаться дымом, пылью или мглою.
Явления - указаны атмосферные явления, наблюдавшиеся в срок или в последний час перед сроком; фигурными скобками обозначены явления, наблюдавшиеся между сроками (за 1-3 часа до срока); квадратными скобками обозначены град или гололедные отложения с указанием их диаметра в мм.
Облачность - указаны через наклонную черту общая и нижняя облачность в баллах и высота нижней границы облаков в метрах; квадратными скобками обозначены формы облаков: Ci - перистые, Cs - перисто-слоистые, Cc - перисто-кучевые, Ac - высококучевые, As - высокослоистые, Sc - слоисто-кучевые, Ns - слоисто-дождевые, Cu - кучевые, Cb - кучево-дождевые. Подробнее классификацию облаков см. в Атласе облаков (PDF).
T - Температура воздуха - температура, измеренная на высоте 2 м над землей.
Td - Температура точки росы - температура, при понижении до которой содержащийся в воздухе водяной пар достигнет насыщения.
f - Относительная влажность воздуха - влажноcть воздуха, измеренная на высоте 2 м над землей.
Te - Эффективная температура - температура, которую ощущает одетый по сезону человек в тени. Характеристика душности погоды. При расчете учитывается влияние влажности воздуха и скорости ветра на теплоощущения человека.
Tes - Эффективная температура на солнце - температура, которую ощущает человек, с поправкой на солнечный нагрев. Характеристика знойности погоды. Зависит от высоты солнца над горизонтом, облачности и скорости ветра. Ночью, в пасмурную погоду, а также при ветре 12 м/с и более поправка равна нулю.
P - Атмосферное давление - приведенное к уровню моря атмосферное давление.
Po - Атмосферное давление - измеренное на уровне метеостанции атмосферное давление.
Tmin - Минимальная температура - минимум температуры воздуха на высоте 2 м над землей.
Tmax - Максимальная температура - максимум температуры воздуха на высоте 2 м над землей.
R - Количество осадков - Количество выпавших осадков за период времени, мм. При наведении курсора мыши на число - период времени, за который выпало указанное количество осадков.
R24 - Количество осадков - Количество выпавших осадков за 24 часа, мм.
S - Снежный покров - Высота снежного покрова, см. При наведении курсора мыши на число - состояние снежного покрова и степень покрытия местности в баллах.